Regional Weather Roundup
Issued by NWS Sioux Falls, SD

Home | Current Version | Previous Version | Graphics & Text | Print | Product List | Glossary On
Versions: 1 2 3 4 5 6 7 8 9 10 11 12 13 14 15 16 17 18 19 20 21 22 23 24 25 26 27 28 29 30 31 32 33 34 35 36 37 38 39 40 41 42 43 44 45 46 47 48 49 50
000
ASUS43 KFSD 041910
RWRFSD

WEATHER ROUNDUP FOR SE SOUTH DAKOTA/SW MINNESOTA/NW IOWA
NATIONAL WEATHER SERVICE SIOUX FALLS SD
200 PM CDT TUE AUG 04 2015

NOTE: "FAIR" INDICATES FEW OR NO CLOUDS BELOW 12,000 FEET WITH NO
SIGNIFICANT WEATHER AND OR OBSTRUCTIONS TO VISIBILITY.


SDZ038>040-050-052>070-042000-
SOUTHEAST SOUTH DAKOTA

CITY           SKY/WX    TMP DP  RH WIND       PRES   REMARKS
BROOKINGS      PTSUNNY   75  59  57 SE8       30.02S
CHAMBERLAIN    PTSUNNY   77  62  60 SE10      29.96S
HURON          CLOUDY    80  63  55 SE9       29.96S
MADISON        FAIR      75  64  69 SE8       30.01S
MITCHELL       CLOUDY    78  65  63 SE9       29.97S
SIOUX FALLS    CLOUDY    75  61  61 E9        30.00R
WINNER         FAIR      81  63  54 E13       29.96S
YANKTON        PTSUNNY   75  63  64 E7        29.95S
$$

MNZ071-072-080-081-089-090-097-098-042000-
SOUTHWEST MINNESOTA

CITY           SKY/WX    TMP DP  RH WIND       PRES   REMARKS
FAIRMONT       PTSUNNY   75  46  35 SE7       30.01F
JACKSON        PTSUNNY   77  52  41 SE8       30.02F
LUVERNE        PTSUNNY   77  61  57 E8        30.01R
MARSHALL       MOSUNNY   77  52  41 SW6       30.02R
MONTEVIDEO     SUNNY     82  52  34 E6        30.01S
PIPESTONE      PTSUNNY   75  59  57 SE6       30.01S
REDWOOD FALLS  MOSUNNY   80  46  30 VRB3      29.99F
TRACY          MOSUNNY   77  54  44 SE7       30.01S
WINDOM         PTSUNNY   79  45  29 SE5       30.01F
WORTHINGTON    PTSUNNY   73  57  56 SE9       30.01S
$$

IAZ001>003-012>014-020>022-031-032-NEZ013-014-SDZ071-042000-
NORTHWEST IOWA

CITY           SKY/WX    TMP DP  RH WIND       PRES   REMARKS
CHEROKEE       PTSUNNY   76  64  65 E9        29.96F
DENISON        CLOUDY    73  63  68 NE9       29.93F
ESTHERVILLE    PTSUNNY   74  54  49 SE8       30.01F
LE MARS        PTSUNNY   77  63  61 E8        29.97R
ORANGE CITY    PTSUNNY   75  63  64 E10G16    29.98R
SHELDON        CLOUDY    75  61  60 SE10      29.99R
SIOUX CITY     CLOUDY    77  64  64 SE9       29.95R
SPENCER        PTSUNNY   77  57  50 SE12      30.00F
STORM LAKE     PTSUNNY   75  61  60 E10G16    29.98F
$$

ABBREVIATIONS USED IN REMARKS
   TC - TEMPERATURE IN CELSIUS
  WCI - WIND CHILL INDEX
   HX - HEAT INDEX
  VSB - VISIBILITY




USA.gov is the U.S. government's official web portal to all federal, state and local government web resources and services.